| time (UTC) | temp F | wind direction | speed MPH | gust MPH | rain 1hr in | rain 24hr in | rain mn in | humidity % | barometer mb |
| 20260506044550 | 70 | 247 | 0.0 | 0.0 | 0.00 | 0.00 | 0.00 | 32 | 967.4 |
| 20260506043050 | 70 | 265 | 0.0 | 9.0 | 0.00 | 0.00 | 0.00 | 32 | 967.3 |
| 20260506041600 | 70 | 264 | 0.0 | 9.0 | 0.00 | 0.00 | 0.00 | 32 | 967.1 |
| 20260506040049 | 71 | 264 | 0.0 | 9.0 | 0.00 | 0.00 | 0.00 | 32 | 966.9 |
| 20260506034553 | 71 | 261 | 0.0 | 12.0 | 0.00 | 0.00 | 0.00 | 31 | 966.9 |
| 20260506033048 | 71 | 249 | 5.0 | 14.0 | 0.00 | 0.00 | 0.00 | 31 | 966.7 |
| 20260506031548 | 72 | 266 | 3.0 | 13.0 | 0.00 | 0.00 | 0.00 | 30 | 966.4 |
| 20260506030048 | 72 | 249 | 9.0 | 14.0 | 0.00 | 0.00 | 0.00 | 29 | 966.2 |
| 20260506024547 | 72 | 272 | 8.0 | 15.0 | 0.00 | 0.00 | 0.00 | 29 | 965.9 |
| 20260506023100 | 72 | 295 | 6.0 | 15.0 | 0.00 | 0.00 | 0.00 | 30 | 965.8 |
| 20260506021546 | 73 | 273 | 9.0 | 15.0 | 0.00 | 0.00 | 0.00 | 30 | 965.5 |
| 20260506020051 | 73 | 273 | 7.0 | 20.0 | 0.00 | 0.00 | 0.00 | 29 | 965.3 |
| 20260506014544 | 74 | 268 | 3.0 | 13.0 | 0.00 | 0.00 | 0.00 | 29 | 965.2 |
| 20260506013052 | 74 | 259 | 9.0 | 14.0 | 0.00 | 0.00 | 0.00 | 29 | 965.1 |
| 20260506011546 | 75 | 284 | 7.0 | 16.0 | 0.00 | 0.00 | 0.00 | 29 | 965.0 |
| 20260506010043 | 75 | 212 | 4.0 | 17.0 | 0.00 | 0.00 | 0.00 | 30 | 964.9 |
| 20260506004542 | 75 | 285 | 7.0 | 14.0 | 0.00 | 0.00 | 0.00 | 29 | 964.8 |
| 20260506003041 | 75 | 276 | 0.0 | 16.0 | 0.00 | 0.00 | 0.00 | 31 | 964.7 |
| 20260506001539 | 75 | 298 | 10.0 | 19.0 | 0.00 | 0.00 | 0.00 | 30 | 964.6 |
| 20260506000037 | 76 | 281 | 7.0 | 18.0 | 0.00 | 0.00 | 0.00 | 30 | 964.6 |
| 20260505234537 | 76 | 263 | 11.0 | 15.0 | 0.00 | 0.00 | 0.00 | 28 | 964.5 |
| 20260505233036 | 76 | 307 | 6.0 | 15.0 | 0.00 | 0.00 | 0.00 | 30 | 964.4 |
| 20260505231534 | 76 | 227 | 7.0 | 15.0 | 0.00 | 0.00 | 0.00 | 29 | 964.5 |
| 20260505230045 | 76 | 219 | 8.0 | 17.0 | 0.00 | 0.00 | 0.00 | 30 | 964.5 |
| 20260505224534 | 77 | 224 | 7.0 | 15.0 | 0.00 | 0.00 | 0.00 | 29 | 964.6 |
| 20260505223038 | 76 | 242 | 6.0 | 18.0 | 0.00 | 0.00 | 0.00 | 30 | 964.7 |
| 20260505221529 | 77 | 233 | 8.0 | 16.0 | 0.00 | 0.00 | 0.00 | 30 | 965.0 |
| 20260505220046 | 76 | 211 | 10.0 | 16.0 | 0.00 | 0.00 | 0.00 | 31 | 964.9 |
| 20260505214533 | 76 | 205 | 7.0 | 15.0 | 0.00 | 0.00 | 0.00 | 31 | 965.1 |
| 20260505213027 | 75 | 231 | 7.0 | 19.0 | 0.00 | 0.00 | 0.00 | 32 | 965.1 |
| 20260505211523 | 75 | 236 | 9.0 | 16.0 | 0.00 | 0.00 | 0.00 | 32 | 965.4 |
| 20260505210021 | 76 | 244 | 8.0 | 17.0 | 0.00 | 0.00 | 0.00 | 32 | 965.5 |
| 20260505204518 | 75 | 250 | 9.0 | 19.0 | 0.00 | 0.00 | 0.00 | 36 | 965.6 |
| 20260505203016 | 75 | 198 | 7.0 | 16.0 | 0.00 | 0.00 | 0.00 | 36 | 965.6 |
| 20260505201514 | 74 | 193 | 4.0 | 16.0 | 0.00 | 0.00 | 0.00 | 38 | 965.8 |
| 20260505200019 | 73 | 195 | 0.0 | 12.0 | 0.00 | 0.00 | 0.00 | 41 | 966.0 |
| 20260505194515 | 74 | 263 | 6.0 | 17.0 | 0.00 | 0.00 | 0.00 | 40 | 966.1 |
| 20260505193015 | 74 | 227 | 4.0 | 18.0 | 0.00 | 0.00 | 0.00 | 40 | 966.1 |
| 20260505191523 | 73 | 268 | 7.0 | 14.0 | 0.00 | 0.00 | 0.00 | 43 | 966.3 |
| 20260505190011 | 72 | 206 | 12.0 | 19.0 | 0.00 | 0.00 | 0.00 | 44 | 966.5 |
| 20260505184511 | 72 | 153 | 3.0 | 15.0 | 0.00 | 0.00 | 0.00 | 44 | 966.6 |
| 20260505183011 | 72 | 202 | 10.0 | 18.0 | 0.00 | 0.00 | 0.00 | 44 | 966.7 |
| 20260505181508 | 72 | 194 | 10.0 | 16.0 | 0.00 | 0.00 | 0.00 | 45 | 966.8 |
| 20260505180008 | 71 | 192 | 5.0 | 14.0 | 0.00 | 0.00 | 0.00 | 48 | 966.8 |
| 20260505174508 | 70 | 234 | 0.0 | 11.0 | 0.00 | 0.00 | 0.00 | 50 | 966.9 |
| 20260505173007 | 70 | 200 | 5.0 | 12.0 | 0.00 | 0.00 | 0.00 | 51 | 966.8 |
| 20260505171506 | 70 | 211 | 7.0 | 17.0 | 0.00 | 0.00 | 0.00 | 52 | 966.9 |
| 20260505170005 | 70 | 187 | 3.0 | 12.0 | 0.00 | 0.00 | 0.00 | 55 | 966.8 |
| 20260505164504 | 68 | 184 | 1.0 | 10.0 | 0.00 | 0.00 | 0.00 | 56 | 966.8 |
| 20260505163007 | 68 | 183 | 6.0 | 13.0 | 0.00 | 0.00 | 0.00 | 55 | 966.9 |
| 20260505161504 | 67 | 242 | 1.0 | 9.0 | 0.00 | 0.00 | 0.00 | 57 | 966.9 |
| 20260505153004 | 67 | 151 | 1.0 | 7.0 | 0.00 | 0.00 | 0.00 | 61 | 966.7 |
| 20260505151600 | 66 | 207 | 0.0 | 8.0 | 0.00 | 0.00 | 0.00 | 63 | 966.8 |
| 20260505150109 | 66 | 203 | 4.0 | 8.0 | 0.00 | 0.00 | 0.00 | 66 | 966.8 |
| 20260505140105 | 65 | 163 | 0.0 | 8.0 | 0.00 | 0.00 | 0.00 | 69 | 966.8 |
| 20260505130110 | 64 | 90 | 0.0 | 0.0 | 0.00 | 0.00 | 0.00 | 75 | 966.3 |
| 20260505124554 | 64 | 90 | 0.0 | 0.0 | 0.00 | 0.00 | 0.00 | 75 | 966.2 |
| 20260505123055 | 64 | 90 | 0.0 | 0.0 | 0.00 | 0.00 | 0.00 | 74 | 966.0 |
| 20260505121552 | 64 | 90 | 0.0 | 6.0 | 0.00 | 0.00 | 0.00 | 74 | 966.0 |
| 20260505120054 | 64 | 91 | 0.0 | 0.0 | 0.00 | 0.00 | 0.00 | 74 | 965.8 |
| 20260505114551 | 64 | 91 | 0.0 | 0.0 | 0.00 | 0.00 | 0.00 | 72 | 965.9 |
| 20260505113050 | 64 | 90 | 3.0 | 10.0 | 0.00 | 0.00 | 0.00 | 71 | 965.7 |
| 20260505111545 | 65 | 63 | 0.0 | 6.0 | 0.00 | 0.00 | 0.00 | 68 | 965.9 |
| 20260505101544 | 65 | 143 | 4.0 | 9.0 | 0.00 | 0.00 | 0.00 | 63 | 966.6 |
| 20260505100036 | 65 | 134 | 0.0 | 4.0 | 0.00 | 0.00 | 0.00 | 64 | 966.8 |
| 20260505094534 | 65 | 133 | 0.0 | 7.0 | 0.00 | 0.00 | 0.00 | 65 | 966.8 |
| 20260505093034 | 65 | 143 | 2.0 | 12.0 | 0.00 | 0.00 | 0.00 | 66 | 966.8 |
| 20260505091535 | 64 | 141 | 4.0 | 11.0 | 0.00 | 0.00 | 0.00 | 67 | 966.9 |
| 20260505090038 | 65 | 151 | 3.0 | 15.0 | 0.00 | 0.00 | 0.00 | 64 | 967.0 |
| 20260505084524 | 66 | 148 | 9.0 | 15.0 | 0.00 | 0.00 | 0.00 | 62 | 967.3 |
| 20260505083021 | 66 | 141 | 8.0 | 15.0 | 0.00 | 0.00 | 0.00 | 59 | 967.3 |
| 20260505081517 | 67 | 130 | 7.0 | 13.0 | 0.00 | 0.00 | 0.00 | 57 | 967.4 |
| 20260505080035 | 68 | 142 | 3.0 | 19.0 | 0.00 | 0.00 | 0.00 | 53 | 967.6 |
| 20260505074509 | 69 | 147 | 4.0 | 13.0 | 0.00 | 0.00 | 0.00 | 48 | 967.4 |
| 20260505073014 | 69 | 180 | 6.0 | 14.0 | 0.00 | 0.00 | 0.00 | 48 | 967.3 |
| 20260505071505 | 69 | 157 | 2.0 | 12.0 | 0.00 | 0.00 | 0.00 | 47 | 967.4 |
| 20260505070002 | 69 | 189 | 4.0 | 15.0 | 0.00 | 0.00 | 0.00 | 45 | 967.3 |
| 20260505064600 | 70 | 143 | 1.0 | 19.0 | 0.00 | 0.00 | 0.00 | 42 | 967.2 |
| 20260505063058 | 70 | 182 | 4.0 | 16.0 | 0.00 | 0.00 | 0.00 | 40 | 966.7 |
| 20260505061554 | 71 | 180 | 4.0 | 16.0 | 0.00 | 0.00 | 0.00 | 37 | 966.6 |
| 20260505060054 | 71 | 157 | 2.0 | 11.0 | 0.00 | 0.00 | 0.00 | 34 | 966.6 |
| 20260505054557 | 72 | 181 | 3.0 | 14.0 | 0.00 | 0.00 | 0.00 | 34 | 966.7 |
| 20260505053052 | 72 | 195 | 2.0 | 15.0 | 0.00 | 0.00 | 0.00 | 34 | 967.1 |
| 20260505051551 | 72 | 147 | 0.0 | 9.0 | 0.00 | 0.00 | 0.00 | 35 | 967.2 |